Data supplied by UK-AIR on 5/4/2008
All Data GMT hour ending 
Status: R =Ratified P=Provisional,P*=As supplied
,,Walsall Alumwell,,,,,,,,,,,,,,,,,,,,,,,
Date,time,"Nitric oxide",status,unit,"Nitrogen dioxide",status,unit,"Nitrogen oxides as nitrogen dioxide",status,unit
 
01-01-1996,01:00,,,,,,,,,
01-01-1996,02:00,41,R,ugm-3,61,R,ugm-3,124,R,ugm-3
01-01-1996,03:00,29,R,ugm-3,53,R,ugm-3,97,R,ugm-3
01-01-1996,04:00,21,R,ugm-3,57,R,ugm-3,90,R,ugm-3
01-01-1996,05:00,16,R,ugm-3,53,R,ugm-3,78,R,ugm-3
01-01-1996,06:00,16,R,ugm-3,55,R,ugm-3,80,R,ugm-3
01-01-1996,07:00,21,R,ugm-3,52,R,ugm-3,84,R,ugm-3
01-01-1996,08:00,20,R,ugm-3,50,R,ugm-3,80,R,ugm-3
01-01-1996,09:00,21,R,ugm-3,50,R,ugm-3,82,R,ugm-3
01-01-1996,10:00,24,R,ugm-3,55,R,ugm-3,92,R,ugm-3
01-01-1996,11:00,29,R,ugm-3,52,R,ugm-3,96,R,ugm-3
01-01-1996,12:00,38,R,ugm-3,59,R,ugm-3,117,R,ugm-3
01-01-1996,13:00,48,R,ugm-3,55,R,ugm-3,128,R,ugm-3
01-01-1996,14:00,60,R,ugm-3,59,R,ugm-3,151,R,ugm-3
01-01-1996,15:00,64,R,ugm-3,65,R,ugm-3,162,R,ugm-3
01-01-1996,16:00,74,R,ugm-3,67,R,ugm-3,180,R,ugm-3
01-01-1996,17:00,74,R,ugm-3,67,R,ugm-3,180,R,ugm-3
01-01-1996,18:00,75,R,ugm-3,63,R,ugm-3,178,R,ugm-3
01-01-1996,19:00,75,R,ugm-3,65,R,ugm-3,180,R,ugm-3
01-01-1996,20:00,71,R,ugm-3,63,R,ugm-3,172,R,ugm-3
01-01-1996,21:00,76,R,ugm-3,67,R,ugm-3,183,R,ugm-3
01-01-1996,22:00,91,R,ugm-3,76,R,ugm-3,216,R,ugm-3
01-01-1996,23:00,79,R,ugm-3,74,R,ugm-3,195,R,ugm-3
01-01-1996,24:00,84,R,ugm-3,78,R,ugm-3,206,R,ugm-3
02-01-1996,01:00,76,R,ugm-3,76,R,ugm-3,193,R,ugm-3
02-01-1996,02:00,59,R,ugm-3,69,R,ugm-3,159,R,ugm-3
02-01-1996,03:00,53,R,ugm-3,67,R,ugm-3,147,R,ugm-3
02-01-1996,04:00,49,R,ugm-3,69,R,ugm-3,143,R,ugm-3
02-01-1996,05:00,61,R,ugm-3,73,R,ugm-3,166,R,ugm-3
02-01-1996,06:00,69,R,ugm-3,74,R,ugm-3,180,R,ugm-3
02-01-1996,07:00,63,R,ugm-3,74,R,ugm-3,170,R,ugm-3
02-01-1996,08:00,75,R,ugm-3,78,R,ugm-3,193,R,ugm-3
02-01-1996,09:00,91,R,ugm-3,82,R,ugm-3,222,R,ugm-3
02-01-1996,10:00,151,R,ugm-3,90,R,ugm-3,321,R,ugm-3
02-01-1996,11:00,158,R,ugm-3,99,R,ugm-3,340,R,ugm-3
02-01-1996,12:00,273,R,ugm-3,124,R,ugm-3,541,R,ugm-3
02-01-1996,13:00,294,R,ugm-3,134,R,ugm-3,583,R,ugm-3
02-01-1996,14:00,240,R,ugm-3,130,R,ugm-3,497,R,ugm-3
02-01-1996,15:00,210,R,ugm-3,117,R,ugm-3,437,R,ugm-3
02-01-1996,16:00,190,R,ugm-3,107,R,ugm-3,397,R,ugm-3
02-01-1996,17:00,134,R,ugm-3,103,R,ugm-3,308,R,ugm-3
02-01-1996,18:00,224,R,ugm-3,111,R,ugm-3,453,R,ugm-3
02-01-1996,19:00,245,R,ugm-3,111,R,ugm-3,485,R,ugm-3
02-01-1996,20:00,246,R,ugm-3,109,R,ugm-3,485,R,ugm-3
02-01-1996,21:00,270,R,ugm-3,115,R,ugm-3,527,R,ugm-3
02-01-1996,22:00,210,R,ugm-3,105,R,ugm-3,426,R,ugm-3
02-01-1996,23:00,191,R,ugm-3,101,R,ugm-3,393,R,ugm-3
02-01-1996,24:00,148,R,ugm-3,96,R,ugm-3,321,R,ugm-3
03-01-1996,01:00,144,R,ugm-3,65,R,ugm-3,285,R,ugm-3
03-01-1996,02:00,94,R,ugm-3,57,R,ugm-3,201,R,ugm-3
03-01-1996,03:00,83,R,ugm-3,59,R,ugm-3,185,R,ugm-3
03-01-1996,04:00,76,R,ugm-3,61,R,ugm-3,178,R,ugm-3
03-01-1996,05:00,69,R,ugm-3,57,R,ugm-3,162,R,ugm-3
03-01-1996,06:00,75,R,ugm-3,59,R,ugm-3,174,R,ugm-3
03-01-1996,07:00,79,R,ugm-3,61,R,ugm-3,181,R,ugm-3
03-01-1996,08:00,110,R,ugm-3,63,R,ugm-3,231,R,ugm-3
03-01-1996,09:00,65,R,ugm-3,65,R,ugm-3,164,R,ugm-3
03-01-1996,10:00,59,R,ugm-3,59,R,ugm-3,149,R,ugm-3
03-01-1996,11:00,53,R,ugm-3,61,R,ugm-3,141,R,ugm-3
03-01-1996,12:00,48,R,ugm-3,57,R,ugm-3,130,R,ugm-3
03-01-1996,13:00,,,,,,,,,
03-01-1996,14:00,,,,,,,,,
03-01-1996,15:00,,,,,,,,,
03-01-1996,16:00,,,,,,,,,
03-01-1996,17:00,69,R,ugm-3,46,R,ugm-3,151,R,ugm-3
03-01-1996,18:00,80,R,ugm-3,55,R,ugm-3,178,R,ugm-3
03-01-1996,19:00,50,R,ugm-3,61,R,ugm-3,138,R,ugm-3
03-01-1996,20:00,28,R,ugm-3,53,R,ugm-3,96,R,ugm-3
03-01-1996,21:00,19,R,ugm-3,46,R,ugm-3,74,R,ugm-3
03-01-1996,22:00,19,R,ugm-3,46,R,ugm-3,74,R,ugm-3
03-01-1996,23:00,18,R,ugm-3,40,R,ugm-3,67,R,ugm-3
03-01-1996,24:00,18,R,ugm-3,40,R,ugm-3,67,R,ugm-3
04-01-1996,01:00,18,R,ugm-3,40,R,ugm-3,67,R,ugm-3
04-01-1996,02:00,13,R,ugm-3,38,R,ugm-3,57,R,ugm-3
04-01-1996,03:00,18,R,ugm-3,48,R,ugm-3,74,R,ugm-3
04-01-1996,04:00,28,R,ugm-3,69,R,ugm-3,111,R,ugm-3
04-01-1996,05:00,25,R,ugm-3,67,R,ugm-3,105,R,ugm-3
04-01-1996,06:00,25,R,ugm-3,52,R,ugm-3,90,R,ugm-3
04-01-1996,07:00,34,R,ugm-3,50,R,ugm-3,101,R,ugm-3
04-01-1996,08:00,45,R,ugm-3,53,R,ugm-3,122,R,ugm-3
04-01-1996,09:00,58,R,ugm-3,50,R,ugm-3,138,R,ugm-3
04-01-1996,10:00,60,R,ugm-3,53,R,ugm-3,145,R,ugm-3
04-01-1996,11:00,63,R,ugm-3,53,R,ugm-3,149,R,ugm-3
04-01-1996,12:00,54,R,ugm-3,55,R,ugm-3,138,R,ugm-3
04-01-1996,13:00,48,R,ugm-3,61,R,ugm-3,134,R,ugm-3
04-01-1996,14:00,48,R,ugm-3,63,R,ugm-3,136,R,ugm-3
04-01-1996,15:00,35,R,ugm-3,63,R,ugm-3,117,R,ugm-3
04-01-1996,16:00,39,R,ugm-3,65,R,ugm-3,124,R,ugm-3
04-01-1996,17:00,35,R,ugm-3,71,R,ugm-3,124,R,ugm-3
04-01-1996,18:00,39,R,ugm-3,69,R,ugm-3,128,R,ugm-3
04-01-1996,19:00,30,R,ugm-3,65,R,ugm-3,111,R,ugm-3
04-01-1996,20:00,29,R,ugm-3,59,R,ugm-3,103,R,ugm-3
04-01-1996,21:00,19,R,ugm-3,50,R,ugm-3,78,R,ugm-3
04-01-1996,22:00,19,R,ugm-3,50,R,ugm-3,78,R,ugm-3
04-01-1996,23:00,23,R,ugm-3,53,R,ugm-3,88,R,ugm-3
04-01-1996,24:00,26,R,ugm-3,57,R,ugm-3,97,R,ugm-3
05-01-1996,01:00,28,R,ugm-3,52,R,ugm-3,94,R,ugm-3
05-01-1996,02:00,24,R,ugm-3,42,R,ugm-3,78,R,ugm-3
05-01-1996,03:00,25,R,ugm-3,44,R,ugm-3,82,R,ugm-3
05-01-1996,04:00,23,R,ugm-3,38,R,ugm-3,73,R,ugm-3
05-01-1996,05:00,19,R,ugm-3,38,R,ugm-3,67,R,ugm-3
05-01-1996,06:00,25,R,ugm-3,46,R,ugm-3,84,R,ugm-3
05-01-1996,07:00,33,R,ugm-3,55,R,ugm-3,105,R,ugm-3
05-01-1996,08:00,39,R,ugm-3,55,R,ugm-3,115,R,ugm-3
05-01-1996,09:00,56,R,ugm-3,61,R,ugm-3,147,R,ugm-3
05-01-1996,10:00,43,R,ugm-3,59,R,ugm-3,124,R,ugm-3
05-01-1996,11:00,33,R,ugm-3,59,R,ugm-3,109,R,ugm-3
05-01-1996,12:00,35,R,ugm-3,63,R,ugm-3,117,R,ugm-3
05-01-1996,13:00,65,R,ugm-3,73,R,ugm-3,172,R,ugm-3
05-01-1996,14:00,65,R,ugm-3,73,R,ugm-3,172,R,ugm-3
05-01-1996,15:00,71,R,ugm-3,80,R,ugm-3,189,R,ugm-3
05-01-1996,16:00,75,R,ugm-3,78,R,ugm-3,193,R,ugm-3
05-01-1996,17:00,116,R,ugm-3,80,R,ugm-3,258,R,ugm-3
05-01-1996,18:00,109,R,ugm-3,76,R,ugm-3,243,R,ugm-3
05-01-1996,19:00,108,R,ugm-3,82,R,ugm-3,246,R,ugm-3
05-01-1996,20:00,119,R,ugm-3,80,R,ugm-3,262,R,ugm-3
05-01-1996,21:00,109,R,ugm-3,73,R,ugm-3,239,R,ugm-3
05-01-1996,22:00,71,R,ugm-3,73,R,ugm-3,181,R,ugm-3
05-01-1996,23:00,74,R,ugm-3,69,R,ugm-3,181,R,ugm-3
05-01-1996,24:00,54,R,ugm-3,74,R,ugm-3,157,R,ugm-3
06-01-1996,01:00,39,R,ugm-3,73,R,ugm-3,132,R,ugm-3
06-01-1996,02:00,49,R,ugm-3,78,R,ugm-3,153,R,ugm-3
06-01-1996,03:00,31,R,ugm-3,63,R,ugm-3,111,R,ugm-3
06-01-1996,04:00,34,R,ugm-3,67,R,ugm-3,118,R,ugm-3
06-01-1996,05:00,30,R,ugm-3,48,R,ugm-3,94,R,ugm-3
06-01-1996,06:00,28,R,ugm-3,55,R,ugm-3,97,R,ugm-3
06-01-1996,07:00,28,R,ugm-3,69,R,ugm-3,111,R,ugm-3
06-01-1996,08:00,31,R,ugm-3,78,R,ugm-3,126,R,ugm-3
06-01-1996,09:00,24,R,ugm-3,67,R,ugm-3,103,R,ugm-3
06-01-1996,10:00,30,R,ugm-3,71,R,ugm-3,117,R,ugm-3
06-01-1996,11:00,24,R,ugm-3,55,R,ugm-3,92,R,ugm-3
06-01-1996,12:00,26,R,ugm-3,55,R,ugm-3,96,R,ugm-3
06-01-1996,13:00,34,R,ugm-3,65,R,ugm-3,117,R,ugm-3
06-01-1996,14:00,25,R,ugm-3,57,R,ugm-3,96,R,ugm-3
06-01-1996,15:00,25,R,ugm-3,59,R,ugm-3,97,R,ugm-3
06-01-1996,16:00,20,R,ugm-3,63,R,ugm-3,94,R,ugm-3
06-01-1996,17:00,18,R,ugm-3,57,R,ugm-3,84,R,ugm-3
06-01-1996,18:00,15,R,ugm-3,53,R,ugm-3,76,R,ugm-3
06-01-1996,19:00,16,R,ugm-3,53,R,ugm-3,78,R,ugm-3
06-01-1996,20:00,13,R,ugm-3,42,R,ugm-3,61,R,ugm-3
06-01-1996,21:00,13,R,ugm-3,40,R,ugm-3,59,R,ugm-3
06-01-1996,22:00,11,R,ugm-3,40,R,ugm-3,57,R,ugm-3
06-01-1996,23:00,11,R,ugm-3,32,R,ugm-3,50,R,ugm-3
06-01-1996,24:00,13,R,ugm-3,32,R,ugm-3,52,R,ugm-3
07-01-1996,01:00,11,R,ugm-3,34,R,ugm-3,52,R,ugm-3
07-01-1996,02:00,13,R,ugm-3,29,R,ugm-3,48,R,ugm-3
07-01-1996,03:00,13,R,ugm-3,29,R,ugm-3,48,R,ugm-3
07-01-1996,04:00,13,R,ugm-3,29,R,ugm-3,48,R,ugm-3
07-01-1996,05:00,15,R,ugm-3,23,R,ugm-3,46,R,ugm-3
07-01-1996,06:00,20,R,ugm-3,23,R,ugm-3,53,R,ugm-3
07-01-1996,07:00,25,R,ugm-3,34,R,ugm-3,73,R,ugm-3
07-01-1996,08:00,29,R,ugm-3,34,R,ugm-3,78,R,ugm-3
07-01-1996,09:00,31,R,ugm-3,46,R,ugm-3,94,R,ugm-3
07-01-1996,10:00,26,R,ugm-3,38,R,ugm-3,78,R,ugm-3
07-01-1996,11:00,31,R,ugm-3,52,R,ugm-3,99,R,ugm-3
07-01-1996,12:00,44,R,ugm-3,59,R,ugm-3,126,R,ugm-3
07-01-1996,13:00,50,R,ugm-3,65,R,ugm-3,141,R,ugm-3
07-01-1996,14:00,45,R,ugm-3,67,R,ugm-3,136,R,ugm-3
07-01-1996,15:00,60,R,ugm-3,76,R,ugm-3,168,R,ugm-3
07-01-1996,16:00,63,R,ugm-3,80,R,ugm-3,176,R,ugm-3
07-01-1996,17:00,55,R,ugm-3,74,R,ugm-3,159,R,ugm-3
07-01-1996,18:00,70,R,ugm-3,80,R,ugm-3,187,R,ugm-3
07-01-1996,19:00,73,R,ugm-3,82,R,ugm-3,193,R,ugm-3
07-01-1996,20:00,41,R,ugm-3,76,R,ugm-3,139,R,ugm-3
07-01-1996,21:00,63,R,ugm-3,92,R,ugm-3,187,R,ugm-3
07-01-1996,22:00,41,R,ugm-3,73,R,ugm-3,136,R,ugm-3
07-01-1996,23:00,39,R,ugm-3,65,R,ugm-3,124,R,ugm-3
07-01-1996,24:00,33,R,ugm-3,52,R,ugm-3,101,R,ugm-3
08-01-1996,01:00,25,R,ugm-3,46,R,ugm-3,84,R,ugm-3
08-01-1996,02:00,26,R,ugm-3,38,R,ugm-3,78,R,ugm-3
08-01-1996,03:00,25,R,ugm-3,34,R,ugm-3,73,R,ugm-3
08-01-1996,04:00,25,R,ugm-3,34,R,ugm-3,73,R,ugm-3
08-01-1996,05:00,26,R,ugm-3,42,R,ugm-3,82,R,ugm-3
08-01-1996,06:00,31,R,ugm-3,50,R,ugm-3,97,R,ugm-3
08-01-1996,07:00,31,R,ugm-3,67,R,ugm-3,115,R,ugm-3
08-01-1996,08:00,35,R,ugm-3,78,R,ugm-3,132,R,ugm-3
08-01-1996,09:00,31,R,ugm-3,73,R,ugm-3,120,R,ugm-3
08-01-1996,10:00,30,R,ugm-3,69,R,ugm-3,115,R,ugm-3
08-01-1996,11:00,25,R,ugm-3,59,R,ugm-3,97,R,ugm-3
08-01-1996,12:00,25,R,ugm-3,48,R,ugm-3,86,R,ugm-3
08-01-1996,13:00,29,R,ugm-3,55,R,ugm-3,99,R,ugm-3
08-01-1996,14:00,31,R,ugm-3,57,R,ugm-3,105,R,ugm-3
08-01-1996,15:00,38,R,ugm-3,73,R,ugm-3,130,R,ugm-3
08-01-1996,16:00,35,R,ugm-3,67,R,ugm-3,120,R,ugm-3
08-01-1996,17:00,31,R,ugm-3,67,R,ugm-3,115,R,ugm-3
08-01-1996,18:00,28,R,ugm-3,61,R,ugm-3,103,R,ugm-3
08-01-1996,19:00,24,R,ugm-3,50,R,ugm-3,86,R,ugm-3
08-01-1996,20:00,21,R,ugm-3,42,R,ugm-3,74,R,ugm-3
08-01-1996,21:00,19,R,ugm-3,40,R,ugm-3,69,R,ugm-3
08-01-1996,22:00,21,R,ugm-3,40,R,ugm-3,73,R,ugm-3
08-01-1996,23:00,25,R,ugm-3,38,R,ugm-3,76,R,ugm-3
08-01-1996,24:00,25,R,ugm-3,32,R,ugm-3,71,R,ugm-3
09-01-1996,01:00,25,R,ugm-3,31,R,ugm-3,69,R,ugm-3
09-01-1996,02:00,25,R,ugm-3,42,R,ugm-3,80,R,ugm-3
09-01-1996,03:00,29,R,ugm-3,38,R,ugm-3,82,R,ugm-3
09-01-1996,04:00,29,R,ugm-3,36,R,ugm-3,80,R,ugm-3
09-01-1996,05:00,28,R,ugm-3,38,R,ugm-3,80,R,ugm-3
09-01-1996,06:00,31,R,ugm-3,55,R,ugm-3,103,R,ugm-3
09-01-1996,07:00,38,R,ugm-3,67,R,ugm-3,124,R,ugm-3
09-01-1996,08:00,46,R,ugm-3,76,R,ugm-3,147,R,ugm-3
09-01-1996,09:00,54,R,ugm-3,82,R,ugm-3,164,R,ugm-3
09-01-1996,10:00,69,R,ugm-3,90,R,ugm-3,195,R,ugm-3
09-01-1996,11:00,63,R,ugm-3,92,R,ugm-3,187,R,ugm-3
09-01-1996,12:00,45,R,ugm-3,78,R,ugm-3,147,R,ugm-3
09-01-1996,13:00,38,R,ugm-3,59,R,ugm-3,117,R,ugm-3
09-01-1996,14:00,38,R,ugm-3,71,R,ugm-3,128,R,ugm-3
09-01-1996,15:00,40,R,ugm-3,71,R,ugm-3,132,R,ugm-3
09-01-1996,16:00,44,R,ugm-3,84,R,ugm-3,151,R,ugm-3
09-01-1996,17:00,49,R,ugm-3,92,R,ugm-3,166,R,ugm-3
09-01-1996,18:00,45,R,ugm-3,80,R,ugm-3,149,R,ugm-3
09-01-1996,19:00,38,R,ugm-3,80,R,ugm-3,138,R,ugm-3
09-01-1996,20:00,36,R,ugm-3,73,R,ugm-3,128,R,ugm-3
09-01-1996,21:00,40,R,ugm-3,69,R,ugm-3,130,R,ugm-3
09-01-1996,22:00,38,R,ugm-3,65,R,ugm-3,122,R,ugm-3
09-01-1996,23:00,33,R,ugm-3,55,R,ugm-3,105,R,ugm-3
09-01-1996,24:00,31,R,ugm-3,46,R,ugm-3,94,R,ugm-3
10-01-1996,01:00,29,R,ugm-3,42,R,ugm-3,86,R,ugm-3
10-01-1996,02:00,29,R,ugm-3,46,R,ugm-3,90,R,ugm-3
10-01-1996,03:00,29,R,ugm-3,46,R,ugm-3,90,R,ugm-3
10-01-1996,04:00,29,R,ugm-3,38,R,ugm-3,82,R,ugm-3
10-01-1996,05:00,28,R,ugm-3,42,R,ugm-3,84,R,ugm-3
10-01-1996,06:00,31,R,ugm-3,57,R,ugm-3,105,R,ugm-3
10-01-1996,07:00,55,R,ugm-3,84,R,ugm-3,168,R,ugm-3
10-01-1996,08:00,63,R,ugm-3,99,R,ugm-3,195,R,ugm-3
10-01-1996,09:00,94,R,ugm-3,99,R,ugm-3,243,R,ugm-3
10-01-1996,10:00,121,R,ugm-3,101,R,ugm-3,287,R,ugm-3
10-01-1996,11:00,169,R,ugm-3,109,R,ugm-3,367,R,ugm-3
10-01-1996,12:00,108,R,ugm-3,101,R,ugm-3,265,R,ugm-3
10-01-1996,13:00,56,R,ugm-3,76,R,ugm-3,162,R,ugm-3
10-01-1996,14:00,59,R,ugm-3,84,R,ugm-3,174,R,ugm-3
10-01-1996,15:00,64,R,ugm-3,92,R,ugm-3,189,R,ugm-3
10-01-1996,16:00,88,R,ugm-3,96,R,ugm-3,229,R,ugm-3
10-01-1996,17:00,104,R,ugm-3,105,R,ugm-3,264,R,ugm-3
10-01-1996,18:00,126,R,ugm-3,101,R,ugm-3,294,R,ugm-3
10-01-1996,19:00,126,R,ugm-3,101,R,ugm-3,294,R,ugm-3
10-01-1996,20:00,130,R,ugm-3,96,R,ugm-3,294,R,ugm-3
10-01-1996,21:00,119,R,ugm-3,90,R,ugm-3,271,R,ugm-3
10-01-1996,22:00,110,R,ugm-3,84,R,ugm-3,252,R,ugm-3
10-01-1996,23:00,63,R,ugm-3,82,R,ugm-3,178,R,ugm-3
10-01-1996,24:00,60,R,ugm-3,80,R,ugm-3,172,R,ugm-3
11-01-1996,01:00,29,R,ugm-3,48,R,ugm-3,92,R,ugm-3
11-01-1996,02:00,10,R,ugm-3,23,R,ugm-3,38,R,ugm-3
11-01-1996,03:00,9,R,ugm-3,25,R,ugm-3,38,R,ugm-3
11-01-1996,04:00,10,R,ugm-3,32,R,ugm-3,48,R,ugm-3
11-01-1996,05:00,13,R,ugm-3,27,R,ugm-3,46,R,ugm-3
11-01-1996,06:00,10,R,ugm-3,29,R,ugm-3,44,R,ugm-3
11-01-1996,07:00,8,R,ugm-3,27,R,ugm-3,38,R,ugm-3
11-01-1996,08:00,10,R,ugm-3,34,R,ugm-3,50,R,ugm-3
11-01-1996,09:00,14,R,ugm-3,40,R,ugm-3,61,R,ugm-3
11-01-1996,10:00,15,R,ugm-3,40,R,ugm-3,63,R,ugm-3
11-01-1996,11:00,14,R,ugm-3,38,R,ugm-3,59,R,ugm-3
11-01-1996,12:00,9,R,ugm-3,34,R,ugm-3,48,R,ugm-3
11-01-1996,13:00,14,R,ugm-3,40,R,ugm-3,61,R,ugm-3
11-01-1996,14:00,,,,,,,,,
11-01-1996,15:00,,,,,,,,,
11-01-1996,16:00,,,,,,,,,
11-01-1996,17:00,20,R,ugm-3,63,R,ugm-3,94,R,ugm-3
11-01-1996,18:00,19,R,ugm-3,61,R,ugm-3,90,R,ugm-3
11-01-1996,19:00,21,R,ugm-3,67,R,ugm-3,99,R,ugm-3
11-01-1996,20:00,21,R,ugm-3,71,R,ugm-3,103,R,ugm-3
11-01-1996,21:00,20,R,ugm-3,65,R,ugm-3,96,R,ugm-3
11-01-1996,22:00,18,R,ugm-3,53,R,ugm-3,80,R,ugm-3
11-01-1996,23:00,18,R,ugm-3,53,R,ugm-3,80,R,ugm-3
11-01-1996,24:00,18,R,ugm-3,50,R,ugm-3,76,R,ugm-3
12-01-1996,01:00,15,R,ugm-3,38,R,ugm-3,61,R,ugm-3
12-01-1996,02:00,15,R,ugm-3,27,R,ugm-3,50,R,ugm-3
12-01-1996,03:00,15,R,ugm-3,27,R,ugm-3,50,R,ugm-3
12-01-1996,04:00,15,R,ugm-3,27,R,ugm-3,50,R,ugm-3
12-01-1996,05:00,15,R,ugm-3,25,R,ugm-3,48,R,ugm-3
12-01-1996,06:00,15,R,ugm-3,40,R,ugm-3,63,R,ugm-3
12-01-1996,07:00,18,R,ugm-3,57,R,ugm-3,84,R,ugm-3
12-01-1996,08:00,21,R,ugm-3,69,R,ugm-3,101,R,ugm-3
12-01-1996,09:00,23,R,ugm-3,73,R,ugm-3,107,R,ugm-3
12-01-1996,10:00,21,R,ugm-3,65,R,ugm-3,97,R,ugm-3
12-01-1996,11:00,21,R,ugm-3,59,R,ugm-3,92,R,ugm-3
12-01-1996,12:00,21,R,ugm-3,57,R,ugm-3,90,R,ugm-3
12-01-1996,13:00,20,R,ugm-3,53,R,ugm-3,84,R,ugm-3
12-01-1996,14:00,20,R,ugm-3,50,R,ugm-3,80,R,ugm-3
12-01-1996,15:00,23,R,ugm-3,55,R,ugm-3,90,R,ugm-3
12-01-1996,16:00,21,R,ugm-3,61,R,ugm-3,94,R,ugm-3
12-01-1996,17:00,18,R,ugm-3,65,R,ugm-3,92,R,ugm-3
12-01-1996,18:00,16,R,ugm-3,55,R,ugm-3,80,R,ugm-3
12-01-1996,19:00,15,R,ugm-3,48,R,ugm-3,71,R,ugm-3
12-01-1996,20:00,15,R,ugm-3,42,R,ugm-3,65,R,ugm-3
12-01-1996,21:00,15,R,ugm-3,38,R,ugm-3,61,R,ugm-3
12-01-1996,22:00,14,R,ugm-3,34,R,ugm-3,55,R,ugm-3
12-01-1996,23:00,16,R,ugm-3,32,R,ugm-3,57,R,ugm-3
12-01-1996,24:00,20,R,ugm-3,34,R,ugm-3,65,R,ugm-3
13-01-1996,01:00,20,R,ugm-3,38,R,ugm-3,69,R,ugm-3
13-01-1996,02:00,20,R,ugm-3,40,R,ugm-3,71,R,ugm-3
13-01-1996,03:00,25,R,ugm-3,40,R,ugm-3,78,R,ugm-3
13-01-1996,04:00,24,R,ugm-3,40,R,ugm-3,76,R,ugm-3
13-01-1996,05:00,21,R,ugm-3,44,R,ugm-3,76,R,ugm-3
13-01-1996,06:00,28,R,ugm-3,50,R,ugm-3,92,R,ugm-3
13-01-1996,07:00,30,R,ugm-3,57,R,ugm-3,103,R,ugm-3
13-01-1996,08:00,30,R,ugm-3,57,R,ugm-3,103,R,ugm-3
13-01-1996,09:00,39,R,ugm-3,65,R,ugm-3,124,R,ugm-3
13-01-1996,10:00,31,R,ugm-3,63,R,ugm-3,111,R,ugm-3
13-01-1996,11:00,36,R,ugm-3,65,R,ugm-3,120,R,ugm-3
13-01-1996,12:00,40,R,ugm-3,63,R,ugm-3,124,R,ugm-3
13-01-1996,13:00,39,R,ugm-3,63,R,ugm-3,122,R,ugm-3
13-01-1996,14:00,38,R,ugm-3,61,R,ugm-3,118,R,ugm-3
13-01-1996,15:00,30,R,ugm-3,63,R,ugm-3,109,R,ugm-3
13-01-1996,16:00,20,R,ugm-3,57,R,ugm-3,88,R,ugm-3
13-01-1996,17:00,18,R,ugm-3,55,R,ugm-3,82,R,ugm-3
13-01-1996,18:00,18,R,ugm-3,59,R,ugm-3,86,R,ugm-3
13-01-1996,19:00,16,R,ugm-3,52,R,ugm-3,76,R,ugm-3
13-01-1996,20:00,15,R,ugm-3,48,R,ugm-3,71,R,ugm-3
13-01-1996,21:00,16,R,ugm-3,40,R,ugm-3,65,R,ugm-3
13-01-1996,22:00,15,R,ugm-3,36,R,ugm-3,59,R,ugm-3
13-01-1996,23:00,18,R,ugm-3,38,R,ugm-3,65,R,ugm-3
13-01-1996,24:00,19,R,ugm-3,34,R,ugm-3,63,R,ugm-3
14-01-1996,01:00,19,R,ugm-3,36,R,ugm-3,65,R,ugm-3
14-01-1996,02:00,15,R,ugm-3,32,R,ugm-3,55,R,ugm-3
14-01-1996,03:00,15,R,ugm-3,32,R,ugm-3,55,R,ugm-3
14-01-1996,04:00,16,R,ugm-3,31,R,ugm-3,55,R,ugm-3
14-01-1996,05:00,15,R,ugm-3,27,R,ugm-3,50,R,ugm-3
14-01-1996,06:00,15,R,ugm-3,25,R,ugm-3,48,R,ugm-3
14-01-1996,07:00,15,R,ugm-3,27,R,ugm-3,50,R,ugm-3
14-01-1996,08:00,11,R,ugm-3,31,R,ugm-3,48,R,ugm-3
14-01-1996,09:00,10,R,ugm-3,34,R,ugm-3,50,R,ugm-3
14-01-1996,10:00,11,R,ugm-3,36,R,ugm-3,53,R,ugm-3
14-01-1996,11:00,14,R,ugm-3,38,R,ugm-3,59,R,ugm-3
14-01-1996,12:00,18,R,ugm-3,42,R,ugm-3,69,R,ugm-3
14-01-1996,13:00,25,R,ugm-3,52,R,ugm-3,90,R,ugm-3
14-01-1996,14:00,20,R,ugm-3,55,R,ugm-3,86,R,ugm-3
14-01-1996,15:00,29,R,ugm-3,63,R,ugm-3,107,R,ugm-3
14-01-1996,16:00,38,R,ugm-3,73,R,ugm-3,130,R,ugm-3
14-01-1996,17:00,46,R,ugm-3,80,R,ugm-3,151,R,ugm-3
14-01-1996,18:00,55,R,ugm-3,76,R,ugm-3,160,R,ugm-3
14-01-1996,19:00,50,R,ugm-3,76,R,ugm-3,153,R,ugm-3
14-01-1996,20:00,46,R,ugm-3,76,R,ugm-3,147,R,ugm-3
14-01-1996,21:00,63,R,ugm-3,74,R,ugm-3,170,R,ugm-3
14-01-1996,22:00,51,R,ugm-3,73,R,ugm-3,151,R,ugm-3
14-01-1996,23:00,44,R,ugm-3,74,R,ugm-3,141,R,ugm-3
14-01-1996,24:00,35,R,ugm-3,73,R,ugm-3,126,R,ugm-3
15-01-1996,01:00,48,R,ugm-3,76,R,ugm-3,149,R,ugm-3
15-01-1996,02:00,49,R,ugm-3,76,R,ugm-3,151,R,ugm-3
15-01-1996,03:00,39,R,ugm-3,74,R,ugm-3,134,R,ugm-3
15-01-1996,04:00,38,R,ugm-3,73,R,ugm-3,130,R,ugm-3
15-01-1996,05:00,36,R,ugm-3,73,R,ugm-3,128,R,ugm-3
15-01-1996,06:00,58,R,ugm-3,73,R,ugm-3,160,R,ugm-3
15-01-1996,07:00,89,R,ugm-3,73,R,ugm-3,208,R,ugm-3
15-01-1996,08:00,189,R,ugm-3,73,R,ugm-3,361,R,ugm-3
15-01-1996,09:00,350,R,ugm-3,82,R,ugm-3,617,R,ugm-3
15-01-1996,10:00,315,R,ugm-3,82,R,ugm-3,563,R,ugm-3
15-01-1996,11:00,331,R,ugm-3,92,R,ugm-3,598,R,ugm-3
15-01-1996,12:00,278,R,ugm-3,96,R,ugm-3,520,R,ugm-3
15-01-1996,13:00,258,R,ugm-3,84,R,ugm-3,478,R,ugm-3
15-01-1996,14:00,171,R,ugm-3,82,R,ugm-3,344,R,ugm-3
15-01-1996,15:00,141,R,ugm-3,82,R,ugm-3,298,R,ugm-3
15-01-1996,16:00,163,R,ugm-3,78,R,ugm-3,327,R,ugm-3
15-01-1996,17:00,205,R,ugm-3,74,R,ugm-3,388,R,ugm-3
15-01-1996,18:00,203,R,ugm-3,74,R,ugm-3,384,R,ugm-3
15-01-1996,19:00,253,R,ugm-3,76,R,ugm-3,462,R,ugm-3
15-01-1996,20:00,214,R,ugm-3,73,R,ugm-3,399,R,ugm-3
15-01-1996,21:00,189,R,ugm-3,71,R,ugm-3,359,R,ugm-3
15-01-1996,22:00,191,R,ugm-3,69,R,ugm-3,361,R,ugm-3
15-01-1996,23:00,128,R,ugm-3,69,R,ugm-3,264,R,ugm-3
15-01-1996,24:00,98,R,ugm-3,67,R,ugm-3,216,R,ugm-3
16-01-1996,01:00,76,R,ugm-3,71,R,ugm-3,187,R,ugm-3
16-01-1996,02:00,71,R,ugm-3,67,R,ugm-3,176,R,ugm-3
16-01-1996,03:00,66,R,ugm-3,69,R,ugm-3,170,R,ugm-3
16-01-1996,04:00,71,R,ugm-3,65,R,ugm-3,174,R,ugm-3
16-01-1996,05:00,109,R,ugm-3,65,R,ugm-3,231,R,ugm-3
16-01-1996,06:00,65,R,ugm-3,69,R,ugm-3,168,R,ugm-3
16-01-1996,07:00,96,R,ugm-3,69,R,ugm-3,216,R,ugm-3
16-01-1996,08:00,123,R,ugm-3,69,R,ugm-3,256,R,ugm-3
16-01-1996,09:00,150,R,ugm-3,74,R,ugm-3,304,R,ugm-3
16-01-1996,10:00,155,R,ugm-3,76,R,ugm-3,313,R,ugm-3
16-01-1996,11:00,163,R,ugm-3,82,R,ugm-3,330,R,ugm-3
16-01-1996,12:00,166,R,ugm-3,94,R,ugm-3,348,R,ugm-3
16-01-1996,13:00,181,R,ugm-3,103,R,ugm-3,380,R,ugm-3
16-01-1996,14:00,133,R,ugm-3,94,R,ugm-3,296,R,ugm-3
16-01-1996,15:00,89,R,ugm-3,86,R,ugm-3,222,R,ugm-3
16-01-1996,16:00,91,R,ugm-3,84,R,ugm-3,223,R,ugm-3
16-01-1996,17:00,93,R,ugm-3,84,R,ugm-3,225,R,ugm-3
16-01-1996,18:00,100,R,ugm-3,80,R,ugm-3,233,R,ugm-3
16-01-1996,19:00,95,R,ugm-3,82,R,ugm-3,227,R,ugm-3
16-01-1996,20:00,66,R,ugm-3,78,R,ugm-3,180,R,ugm-3
16-01-1996,21:00,75,R,ugm-3,73,R,ugm-3,187,R,ugm-3
16-01-1996,22:00,49,R,ugm-3,73,R,ugm-3,147,R,ugm-3
16-01-1996,23:00,43,R,ugm-3,69,R,ugm-3,134,R,ugm-3
16-01-1996,24:00,44,R,ugm-3,71,R,ugm-3,138,R,ugm-3
17-01-1996,01:00,29,R,ugm-3,63,R,ugm-3,107,R,ugm-3
17-01-1996,02:00,25,R,ugm-3,61,R,ugm-3,99,R,ugm-3
17-01-1996,03:00,24,R,ugm-3,53,R,ugm-3,90,R,ugm-3
17-01-1996,04:00,38,R,ugm-3,63,R,ugm-3,120,R,ugm-3
17-01-1996,05:00,31,R,ugm-3,71,R,ugm-3,118,R,ugm-3
17-01-1996,06:00,35,R,ugm-3,78,R,ugm-3,132,R,ugm-3
17-01-1996,07:00,39,R,ugm-3,76,R,ugm-3,136,R,ugm-3
17-01-1996,08:00,53,R,ugm-3,76,R,ugm-3,157,R,ugm-3
17-01-1996,09:00,55,R,ugm-3,76,R,ugm-3,160,R,ugm-3
17-01-1996,10:00,78,R,ugm-3,73,R,ugm-3,191,R,ugm-3
17-01-1996,11:00,68,R,ugm-3,69,R,ugm-3,172,R,ugm-3
17-01-1996,12:00,90,R,ugm-3,73,R,ugm-3,210,R,ugm-3
17-01-1996,13:00,61,R,ugm-3,73,R,ugm-3,166,R,ugm-3
17-01-1996,14:00,56,R,ugm-3,74,R,ugm-3,160,R,ugm-3
17-01-1996,15:00,66,R,ugm-3,76,R,ugm-3,178,R,ugm-3
17-01-1996,16:00,68,R,ugm-3,78,R,ugm-3,181,R,ugm-3
17-01-1996,17:00,79,R,ugm-3,90,R,ugm-3,210,R,ugm-3
17-01-1996,18:00,90,R,ugm-3,94,R,ugm-3,231,R,ugm-3
17-01-1996,19:00,124,R,ugm-3,96,R,ugm-3,285,R,ugm-3
17-01-1996,20:00,134,R,ugm-3,96,R,ugm-3,300,R,ugm-3
17-01-1996,21:00,103,R,ugm-3,88,R,ugm-3,244,R,ugm-3
17-01-1996,22:00,45,R,ugm-3,84,R,ugm-3,153,R,ugm-3
17-01-1996,23:00,36,R,ugm-3,92,R,ugm-3,147,R,ugm-3
17-01-1996,24:00,36,R,ugm-3,94,R,ugm-3,149,R,ugm-3
18-01-1996,01:00,31,R,ugm-3,82,R,ugm-3,130,R,ugm-3
18-01-1996,02:00,18,R,ugm-3,73,R,ugm-3,99,R,ugm-3
18-01-1996,03:00,20,R,ugm-3,52,R,ugm-3,82,R,ugm-3
18-01-1996,04:00,15,R,ugm-3,57,R,ugm-3,80,R,ugm-3
18-01-1996,05:00,16,R,ugm-3,59,R,ugm-3,84,R,ugm-3
18-01-1996,06:00,19,R,ugm-3,50,R,ugm-3,78,R,ugm-3
18-01-1996,07:00,26,R,ugm-3,57,R,ugm-3,97,R,ugm-3
18-01-1996,08:00,25,R,ugm-3,59,R,ugm-3,97,R,ugm-3
18-01-1996,09:00,43,R,ugm-3,63,R,ugm-3,128,R,ugm-3
18-01-1996,10:00,34,R,ugm-3,61,R,ugm-3,113,R,ugm-3
18-01-1996,11:00,23,R,ugm-3,53,R,ugm-3,88,R,ugm-3
18-01-1996,12:00,30,R,ugm-3,55,R,ugm-3,101,R,ugm-3
18-01-1996,13:00,45,R,ugm-3,55,R,ugm-3,124,R,ugm-3
18-01-1996,14:00,56,R,ugm-3,61,R,ugm-3,147,R,ugm-3
18-01-1996,15:00,55,R,ugm-3,59,R,ugm-3,143,R,ugm-3
18-01-1996,16:00,,,,,,,,,
18-01-1996,17:00,51,R,ugm-3,61,R,ugm-3,139,R,ugm-3
18-01-1996,18:00,78,R,ugm-3,65,R,ugm-3,183,R,ugm-3
18-01-1996,19:00,64,R,ugm-3,67,R,ugm-3,164,R,ugm-3
18-01-1996,20:00,76,R,ugm-3,69,R,ugm-3,185,R,ugm-3
18-01-1996,21:00,85,R,ugm-3,69,R,ugm-3,199,R,ugm-3
18-01-1996,22:00,73,R,ugm-3,67,R,ugm-3,178,R,ugm-3
18-01-1996,23:00,75,R,ugm-3,65,R,ugm-3,180,R,ugm-3
18-01-1996,24:00,66,R,ugm-3,69,R,ugm-3,170,R,ugm-3
19-01-1996,01:00,55,R,ugm-3,63,R,ugm-3,147,R,ugm-3
19-01-1996,02:00,51,R,ugm-3,63,R,ugm-3,141,R,ugm-3
19-01-1996,03:00,41,R,ugm-3,67,R,ugm-3,130,R,ugm-3
19-01-1996,04:00,31,R,ugm-3,63,R,ugm-3,111,R,ugm-3
19-01-1996,05:00,29,R,ugm-3,57,R,ugm-3,101,R,ugm-3
19-01-1996,06:00,31,R,ugm-3,61,R,ugm-3,109,R,ugm-3
19-01-1996,07:00,46,R,ugm-3,59,R,ugm-3,130,R,ugm-3
19-01-1996,08:00,64,R,ugm-3,57,R,ugm-3,155,R,ugm-3
19-01-1996,09:00,70,R,ugm-3,59,R,ugm-3,166,R,ugm-3
19-01-1996,10:00,61,R,ugm-3,57,R,ugm-3,151,R,ugm-3
19-01-1996,11:00,48,R,ugm-3,53,R,ugm-3,126,R,ugm-3
19-01-1996,12:00,44,R,ugm-3,53,R,ugm-3,120,R,ugm-3
19-01-1996,13:00,44,R,ugm-3,53,R,ugm-3,120,R,ugm-3
19-01-1996,14:00,63,R,ugm-3,57,R,ugm-3,153,R,ugm-3
19-01-1996,15:00,86,R,ugm-3,61,R,ugm-3,193,R,ugm-3
19-01-1996,16:00,89,R,ugm-3,63,R,ugm-3,199,R,ugm-3
19-01-1996,17:00,110,R,ugm-3,63,R,ugm-3,231,R,ugm-3
19-01-1996,18:00,103,R,ugm-3,63,R,ugm-3,220,R,ugm-3
19-01-1996,19:00,94,R,ugm-3,61,R,ugm-3,204,R,ugm-3
19-01-1996,20:00,89,R,ugm-3,61,R,ugm-3,197,R,ugm-3
19-01-1996,21:00,61,R,ugm-3,67,R,ugm-3,160,R,ugm-3
19-01-1996,22:00,59,R,ugm-3,63,R,ugm-3,153,R,ugm-3
19-01-1996,23:00,54,R,ugm-3,67,R,ugm-3,149,R,ugm-3
19-01-1996,24:00,50,R,ugm-3,71,R,ugm-3,147,R,ugm-3
20-01-1996,01:00,53,R,ugm-3,61,R,ugm-3,141,R,ugm-3
20-01-1996,02:00,50,R,ugm-3,57,R,ugm-3,134,R,ugm-3
20-01-1996,03:00,41,R,ugm-3,55,R,ugm-3,118,R,ugm-3
20-01-1996,04:00,33,R,ugm-3,52,R,ugm-3,101,R,ugm-3
20-01-1996,05:00,26,R,ugm-3,46,R,ugm-3,86,R,ugm-3
20-01-1996,06:00,26,R,ugm-3,46,R,ugm-3,86,R,ugm-3
20-01-1996,07:00,25,R,ugm-3,46,R,ugm-3,84,R,ugm-3
20-01-1996,08:00,30,R,ugm-3,44,R,ugm-3,90,R,ugm-3
20-01-1996,09:00,29,R,ugm-3,48,R,ugm-3,92,R,ugm-3
20-01-1996,10:00,33,R,ugm-3,52,R,ugm-3,101,R,ugm-3
20-01-1996,11:00,31,R,ugm-3,52,R,ugm-3,99,R,ugm-3
20-01-1996,12:00,23,R,ugm-3,38,R,ugm-3,73,R,ugm-3
20-01-1996,13:00,18,R,ugm-3,36,R,ugm-3,63,R,ugm-3
20-01-1996,14:00,18,R,ugm-3,48,R,ugm-3,74,R,ugm-3
20-01-1996,15:00,18,R,ugm-3,44,R,ugm-3,71,R,ugm-3